TROPICS-05

Satellite information

Favourite Embed

Satellite Type and Status

PAYLOADIN ORBIT

Key statistics

Satellite TROPICS-05 at a glance.

Uptime

853

Days in orbit

Revolutions

≈ 15.6

Per day

Orbit

LEO

Low Earth Orbit

Inclination

32.7

Latest

Satellite identification and parameters

Extended collection of information and parameters for TROPICS-05.

Object identification

Identified? True

Debris? False

Object name: TROPICS-05

International designator: 2023-062A

Object number (NORAD): 56442

Object ID (CCSDS): 56442

Country: UNITED STATES OF AMERICA (US)

Current information (Y/N): Y

RCS size: MEDIUM

Orbital parameters

Period: 92.27 minutes

Inclination: 32.7306 deg

SMA: 6763.956 km

Apoapsis: 389.117 km

Periapsis: 382.524 km

RAAN: 20.3396 deg

Eccentricy: 0.00048736

Argument of periapsis: 32.5367 deg

Mean anomaly: 327.5618 deg

Mean motion: 15.6063597 rev/day

Mean motion (dot): 0.00128254 rev/day2

B* drag term: 0.0014696094 1/REarth

Two-line elements (TLE)

Creation date: Sept. 7, 2025, 3:09 a.m.

Reference frame: TEME

Reference center: EARTH

Epoch: Sept. 6, 2025, 1:29 p.m. UTC

TLE line 0: 0 TROPICS-05

TLE line 1: 1 56442U 23062A 25249.56241325 .00128254 00000-0 14696-2 0 9994

TLE line 2: 2 56442 32.7306 20.3396 0004874 32.5367 327.5618 15.60635970130273

Live tracking on map

Real-time ground track for satellite TROPICS-05.

In-orbit conjunctions

There are no conjunctions computed for TROPICS-05, at the moment. Check back to stay up to date, as we update our databases every day.

Go to all conjunctions

Associated space launch

Third and fourth operational (TROPICS-04 & TROPICS-05) satellites for NASA's Time-Resolved Observations of Precipitation Structure and Storm Intensity with a Constellation of SmallSats (TROPICS) mission. The CubeSats are designed to provide rapid-refresh microwave measurements that can be used to determine temperature, pressure, and humidity inside hurricanes as they form and evolve.

TROPICS-05 was lifted into orbit during the mission ‘Electron | Rocket Like A Hurricane (TROPICS-2)’, on board a Electron space rocket.

The launch took place on May 8, 2023, 1 a.m. from Rocket Lab Launch Complex 1B.

For more information about the launch, click the button.

Launch to space Electron | Rocket Like A Hurricane (TROPICS-2)
Electron | Rocket Like A Hurricane (TROPICS-2)

Agency: National Aeronautics and Space Administration

Status: Launch Successful

Launch date: May 8, 2023, 1 a.m. UTC

Rocket: Electron

Launch pad: Rocket Lab Launch Complex 1B

Location: Rocket Lab Launch Complex 1, Mahia Peninsula, New Zealand

...

Latest news about this satellite

News about space launch
Tech From NASA’s Hurricane-hunting TROPICS Flies on Commercial Satellites

NASA science and American industry have worked hand-in-hand for more than 60 years, transforming novel technologies created with NASA research into commercial products like cochlear implants, memory-foam mattresses, and more. Now, a NASA-funded device for...

News about space launch
NASA’s TROPICS Mission: Offering Detailed Images and Analysis of Tropical Cyclones

Introduction Tropical cyclones represent a danger to life, property, and the economies of communities. Researchers who study tropical cyclones have focused on remote observations using space-based platforms to image these storms, inform forecasts, better ...

News about space launch
NASA TROPICS Constellation Fully Operational & Ready For Hurricane Season

NASA's TROPICS (Time-Resolved Observations of Precipitation structure and storm Intensity with a Constellation of Smallsats) are now fully operational, and are ready to bolster monitoring efforts for the ongoing Atlantic hurricane season.


Newsletter sign-up

Weekly statistics, charts and insights to help you stay on top of the space industry.